Погода Торгай

Погода Торгай : погода сейчас, прогноз погоды и архив. Всё, что Вы хотите узнать о погоде Торгай!

Хотите узнать прогноз погоды Торгай? Тогда Вам сюда: Погода Торгай

Поиск расширенной информации на нашем сайте:

Другие новости

Новости СМИ2

Главная страница сайта

Новости сайта

02.10.2013

Напоминаем, что на нашем новом сайте вы можете получить высокодетализированные прогнозы погоды по пунктам России, СНГ и мира (включающие важные для авиации метеовеличины, такие как направление и скорость ветра, видимость, явления погоды, количество и форма облачности, нижняя и верхняя граница облачности), а также ознакомиться с разнообразными материалами по авиационной метеорологии и подборкой полезных ссылок на эту тему.

Сайт Метеоцентр.Азия посвящён разработке технологий оптимизации авиаметеорологического обслуживания, включая проектирование и перспективное создание нескольких автоматизированных авиаметеорологических систем:
- система выпуска высокодетальных прогностических карт явлений погоды для нижнего воздушного пространства по России и ближнему зарубежью;
- система верификации прогнозов TAF (выпускаемых синоптиками официальных АМСГ РФ и ближнего зарубежья) и AUTOTAF (выпускаемых сайтом Метеоцентр.Азия) - выявление ошибок, онлайн-сопоставление с фактической погодой METAR, автоматическое внесение коррективов в прогнозы при резком отклонении фактической погоды от прогноза, подсчёт оправдываемости прогнозов по элементам и в целом;
- система обработки, анализа и отображения авиаметеорологической информации для применения провайдерами метеорологической информации.

Рекомендуем: Самая подробная информация акции на продукты питания на сайте.

Погода Торгай - сегодня

Время (UTC), дата Ветер
(°,м/с) 
Видим.   Явления Облачность Т
(°С)
Тd
(°С)
f(%) Тe
(°С)
Pmin
(гПа)
dP
(гПа)
Po
(мм)
O2
(г/м3)
Тmin Tmax R s Состояние
почвы
18 21.05.17 140 (ЮВ) н/о    ясно 
+22.6 +4.6 31 +23  1004.3  -1.6  742  275    +27.8       
21 21.05.17 140 (ЮВ) н/о    ясно 
+20.9 +5.6 37 +21  1004.1  -0.2  741  277           
00 22.05.17 160 (Ю) 10 км    4/0 средняя 
[Ac lent]
+19.8 +5.1 38 +21  1003.2  -1  741  277           
03 22.05.17 160 (Ю) 10 км    8/0 средняя 
[Ac lent]
+20.4 +3.4 33 +20  1002.6  -0.5  740  277           
06 22.05.17 160 (Ю) 10 км    6/6 1000 м 
[Sc]
+26.4 +3 22 +26  1002.1  -0.2  740  271  +19.8         
09 22.05.17 160 (Ю) 10 км    9/0 верхняя 
[Ci fib]
+31.7 +3.6 17 +32  999.3  -2.5  738  266           
12 22.05.17 200 (Ю) 10 км    10/10 1000 м 
[Sc]
+30.9 +4.6 19 +31  997.9  -1.5  737  266           
15 22.05.17 250 (З) 10 км    8/8 1000 м 
[Sc]
+27.9 +5.9 25 +28  995.8  -2.1  736  268    +32.4       
18 22.05.17 290 (З) н/о    3/0 средняя 
[Ac lent]
+23.5 +9.3 40 +24  993.1  -2.9  733  270    +32.4       
21 22.05.17 290 (З) н/о    ясно 
+21.1 +8.6 45 +21  991.3  -1.8  732  272           
00 23.05.17 290 (З) 4000 м  слаб. дождь  10/10 600 м 
[Ns]
+18.9 +14.4 75 +28  989.6  -1.8  731  272           
06 23.05.17 250 (З) 9{16}  10 км  {дождь}  6/6 1000 м 
[Sc]
+19.3 +13.7 70 +26  997.7  737  274  +14.8       
09 23.05.17 250 (З) 10 км    6/0 
[Cu med, cong]
+21.9 +13.8 60 +29  1002.3  4.6  740  273           
12 23.05.17 250 (З) 10 км    6/6 1000 м 
[Cu med, cong]
+23 +11.4 48 +26  1005.4  3.1  742  274           
15 23.05.17 250 (З) 10 км    4/0 средняя 
[Ac lent]
+20.3 +10.4 53 +22  1007.5  1.9  744  277    +23.3       
18 23.05.17 250 (З) н/о  в посл. час ливневой дождь{гроза}  9/9 600 м кучево-дожд. 
[Cb cap]
+15.2 +11.1 76 +18  1009.6  1.8  745  282    +23.3       
21 23.05.17 250 (З) н/о  {ливн. осадки}  10/10 1000 м 
[Sc]
+14.8 +11.4 80 +18  1009.6  745  283           
00 24.05.17 250 (З) 10 км  {ливн. осадки}  9/9 1000 м 
[Sc]
+11.8 +8.4 80 +12  1011.7  1.9  747  287           
06 24.05.17 320 (СЗ) 10 км    3/0 средняя 
[Ac lent]
+15.2 +8.2 63 +15  1015.7  1.7  750  285  +11.8         
09 24.05.17 290 (З) 10 км    3/0 средняя 
[Ac lent]
+17 +7.4 53 +17  1016.3  0.6  750  283           
12 24.05.17 290 (З) 10 км    ясно 
+17.6 +5.1 44 +18  1016.6  0.3  750  283           
15 24.05.17 320 (СЗ) 10 км    ясно 
+17.1 +5 45 +18  1016.8  0.3  751  284    +17.9       
18 24.05.17 340 (С) н/о    ясно 
+12.1 +4.1 58 +12  1019  1.7  752  289    +17.9       
21 24.05.17 340 (С) н/о    ясно 
+10.8 +3.2 59 +12  1019.4  0.3  752  291           
00 25.05.17 320 (СЗ) 10 км    ясно 
+9.8 +4.5 70 +11  1020  0.6  753  292           
Время (UTC), дата Ветер
(°,м/с) 
Видим.   Явления Облачность Т
(°С)
Тd
(°С)
f(%) Тe
(°С)
Pmin
(гПа)
dP
(гПа)
Po
(мм)
O2
(г/м3)
Тmin Tmax R s Состояние
почвы

Для получения пояснительной информации подведите курсор к названию столбца.

ПОГОДА Торгай - архив

Всё, что Вы хотите узнать о погоде Торгай - удобно и подробно!

Выберите нужную дату (начиная с 1 января 2015* года) и нажмите кнопку "Найти".
Будут отображены архивные сводки погоды по пункту Торгай, начиная с указанной даты.


Отображать данные в формате CSV (для использования в таблицах Excel)


Внимание! Наш архив погоды предназначен исключительно для личного некоммерческого использования в познавательных целях. Если Вам необходимы официальные справки о состоянии погоды (для производственных, юридических, коммерческих и т.п. целей), обращайтесь в органы Росгидромета.

*Примечание: данная дата относится к архиву по метеостанциям СССР (Россия, СНГ, Балтия).
Архив по метеостанциям Зарубежной Европы и Азии (кроме Китая) хранится 10 дней, по другим регионам земного шара (Китай, Африка, Америка, Австралия, Океания) - 1 день.

Торгай - район местоположения метеостанции


Название, широта, долгота, высота метеостанции:
Торгай 49.7°ш. 63.5°д. 123 м над ур. моря [Казахстан]

Дополнительная информация

В oтличие oт бoльшинства пoгoдных сайтoв мы публикуем пoдрoбную метеoинфoрмацию в детальнoм прoфессиoнальнoм фoрмате.

Характеристики температуры и влажнoсти вoздуха измеряются на высoте 2 м в тени вдали oт зданий и деревьев.
Скoрoсть ветра измеряется на высoте 10 м (на урoвне рoста челoвека скoрoсть ветра ниже в 1.5-2 раза). Если метеoстанция нахoдится в гoрoде или в лесу, тo скoрoсть ветра занижена на 2-4 м/с пo сравнению с oткрытым местoм. Скoрoсть ветра над акватoриями крупных рек и oзёр, а также на вершинах хoлмoв на 2-5 м/с выше, чем в oбычных услoвиях.
Атмoсфернoе давление в разных тoчках местнoсти мoжет значительнo oтличаться oт давления на метеoстанции, в зависимoсти oт услoвий рельефа (при пoдъёме на 10 м давление пoнижается примернo на 1 мм рт.ст.).